Location: Slidell
(30.2789°N, 89.7378°W)
Time: 13:39:33
(UTC-05:00)

Cosmos 2360 Rocket - Visible Passes

Search period start: 27 July 2017 00:00
Search period end: 06 August 2017 00:00
Orbit: 835 x 845 km, 71.0° (Epoch: 26 July)

Date Brightness Start Highest point End Pass type
(mag) Time Alt. Az. Time Alt. Az. Time Alt. Az.
27 Jul 4.2 01:58:38 22° NE 01:58:38 22° NE 02:00:47 10° NE visible
27 Jul 3.8 03:40:24 21° NW 03:40:24 21° NW 03:43:57 10° NNW visible
28 Jul 4.4 01:43:23 19° NE 01:43:23 19° NE 01:45:02 10° NE visible
28 Jul 3.9 03:25:09 22° NW 03:25:09 22° NW 03:28:24 10° N visible
29 Jul 4.6 01:28:07 16° NE 01:28:07 16° NE 01:29:18 10° NE visible
29 Jul 4.0 03:09:53 22° NW 03:09:53 22° NW 03:12:50 10° N visible
30 Jul 4.8 01:12:49 13° NE 01:12:49 13° NE 01:13:31 10° NE visible
30 Jul 4.0 02:54:35 22° NNW 02:54:35 22° NNW 02:57:16 10° N visible
31 Jul 4.9 00:57:30 11° NE 00:57:30 11° NE 00:57:45 10° NE visible
31 Jul 4.1 02:39:15 21° NNW 02:39:15 21° NNW 02:41:41 10° N visible
01 Aug 4.3 02:23:54 21° NNW 02:23:54 21° NNW 02:26:05 10° N visible
02 Aug 4.4 02:08:31 20° NNW 02:08:31 20° NNW 02:10:30 10° N visible
03 Aug 4.4 01:53:06 19° N 01:53:06 19° N 01:54:53 10° N visible
04 Aug 4.5 01:37:40 18° N 01:37:40 18° N 01:39:16 10° N visible
05 Aug 4.6 01:22:12 18° N 01:22:12 18° N 01:23:40 10° N visible
